Home   Weather   Oberlin   Past weeks

Flag for USA Past Weather in Oberlin, Ohio, USA — Yesterday and Last 2 Weeks

51 °F


Feels Like: 47 °F
Forecast: 39 / 52 °F
Wind: 12 mph from North

Location: Lorain County Regional Airport

Current Time: Oct 25, 2016 at 1:26:05 PM

Latest Report: Oct 25, 2016 at 12:53 PM

Visibility: 10 mi

Pressure: 30.44 "Hg

Humidity: 41%

Dew Point: 28 °F

Location of OberlinLocation

Past Weather in Oberlin — Graph


Oberlin Temperature Yesterday

Maximum temperature yesterday: 58 °F (at 1:03 AM)
Minimum temperature yesterday: 38 °F (at 11:53 PM)
Average temperature yesterday: 50 °F

High & Low Weather Summary for the Past Weeks

High81 °F (Oct 17, 2:53 PM)93% (Oct 13, 11:53 PM)30.47 "Hg (Oct 13, 11:53 PM)
Low34 °F (Oct 14, 7:53 AM)32% (Oct 11, 3:53 PM)29.70 "Hg (Oct 18, 2:53 PM)
Average57 °F69%30.08 "Hg
* Reported Oct 10 11:53 AM — Oct 25 11:53 AM, Oberlin, Weather by CustomWeather, © 2016

Note: Actual official high and low records may vary slightly from our data, if they occured in-between our weather recording intervals... More about our weather records


Oberlin Weather History for the Previous 24 Hours

Scroll right to see more
Time TempWeatherWind HumidityBarometerVisibility
11:53 AM
Tue, Oct 25
50 °FSunny.15 mph44%30.45 "Hg10 mi
10:53 AM49 °FSunny.13 mph52%30.44 "Hg10 mi
9:53 AM48 °FSunny.10 mph56%30.44 "Hg10 mi
8:53 AM42 °FSunny.3 mph76%30.43 "Hg10 mi
7:53 AM42 °FSunny.6 mph68%30.41 "Hg10 mi
6:53 AM43 °FPassing clouds.7 mph71%30.40 "Hg10 mi
5:53 AM44 °FPassing clouds.9 mph68%30.38 "Hg10 mi
4:53 AM45 °FPassing clouds.9 mph68%30.37 "Hg10 mi
3:53 AM45 °FPassing clouds.7 mph68%30.37 "Hg10 mi
2:53 AM46 °FPassing clouds.7 mph68%30.36 "Hg10 mi
1:53 AM41 °FPassing clouds.6 mph82%30.35 "Hg10 mi
12:53 AM39 °FPassing clouds.7 mph82%30.35 "Hg10 mi
11:53 PM
Mon, Oct 24
38 °FClear.No wind86%30.35 "Hg10 mi
10:53 PM40 °FPassing clouds.3 mph83%30.36 "Hg10 mi
9:53 PM43 °FOvercast.3 mph76%30.34 "Hg10 mi
8:53 PM45 °FPassing clouds.3 mph71%30.33 "Hg10 mi
7:53 PM49 °FPassing clouds.5 mph61%30.32 "Hg10 mi
6:53 PM50 °FOvercast.5 mph57%30.30 "Hg10 mi
5:53 PM50 °FOvercast.9 mph57%30.30 "Hg10 mi
4:53 PM51 °FOvercast.12 mph52%30.30 "Hg10 mi
3:53 PM51 °FOvercast.13 mph54%30.28 "Hg10 mi
2:53 PM51 °FOvercast.18 mph54%30.28 "Hg10 mi
1:53 PM52 °FMore clouds than sun.21 mph53%30.27 "Hg10 mi
Weather by CustomWeather, © 2016

See weather overviewHow to use our weather pages